| time (UTC) | temp C | wind direction | speed KPH | gust KPH | rain 1hr cm | rain 24hr cm | rain mn cm | humidity % | barometer mb |
| 20260509213218 | 30 | 133 | 1.6 | 8.0 | 0.00 | 0.00 | 0.00 | 62 | 1007.7 |
| 20260509211716 | 31 | 135 | 3.2 | 11.3 | 0.00 | 0.00 | 0.00 | 63 | 1007.7 |
| 20260509210217 | 31 | 142 | 4.8 | 8.0 | 0.00 | 0.00 | 0.00 | 62 | 1007.9 |
| 20260509204715 | 30 | 157 | 0.0 | 11.3 | 0.00 | 0.00 | 0.00 | 64 | 1008.2 |
| 20260509203218 | 30 | 195 | 1.6 | 8.0 | 0.00 | 0.00 | 0.00 | 65 | 1008.2 |
| 20260509202420 | 30 | 285 | 3.2 | 11.3 | 0.00 | 0.00 | 0.00 | 62 | 1008.4 |
| 20260509200216 | 30 | 313 | 1.6 | 8.0 | 0.00 | 0.00 | 0.00 | 63 | 1008.8 |
| 20260509194715 | 30 | 226 | 0.0 | 11.3 | 0.00 | 0.00 | 0.00 | 66 | 1008.8 |
| 20260509193217 | 30 | 266 | 6.4 | 11.3 | 0.00 | 0.00 | 0.00 | 67 | 1009.0 |
| 20260509191714 | 30 | 176 | 3.2 | 11.3 | 0.00 | 0.00 | 0.00 | 68 | 1009.1 |
| 20260509190215 | 29 | 166 | 4.8 | 11.3 | 0.00 | 0.00 | 0.00 | 70 | 1009.3 |
| 20260509184714 | 29 | 155 | 4.8 | 11.3 | 0.00 | 0.00 | 0.00 | 69 | 1009.5 |
| 20260509183213 | 28 | 212 | 1.6 | 8.0 | 0.00 | 0.00 | 0.00 | 71 | 1009.8 |
| 20260509183104 | 27 | 212 | 0.0 | 11.3 | 0.00 | 0.00 | 0.00 | 73 | 1010.0 |
| 20260509180918 | 28 | 210 | 1.6 | 8.0 | 0.00 | 0.00 | 0.00 | 71 | 1010.1 |
| 20260509174712 | 28 | 161 | 3.2 | 11.3 | 0.00 | 0.00 | 0.00 | 73 | 1010.4 |
| 20260509173213 | 27 | 330 | 3.2 | 14.5 | 0.00 | 0.00 | 0.00 | 72 | 1010.4 |
| 20260509171711 | 27 | 157 | 1.6 | 8.0 | 0.00 | 0.00 | 0.00 | 74 | 1010.3 |
| 20260509170213 | 28 | 157 | 4.8 | 8.0 | 0.00 | 0.00 | 0.00 | 74 | 1010.2 |
| 20260509164711 | 27 | 164 | 0.0 | 8.0 | 0.00 | 0.00 | 0.00 | 78 | 1010.2 |
| 20260509163211 | 26 | 164 | 3.2 | 8.0 | 0.00 | 0.00 | 0.00 | 80 | 1010.2 |
| 20260509161710 | 26 | 117 | 0.0 | 8.0 | 0.00 | 0.00 | 0.00 | 80 | 1010.4 |
| 20260509160211 | 26 | 145 | 1.6 | 4.8 | 0.00 | 0.00 | 0.00 | 82 | 1010.6 |
| 20260509155404 | 25 | 145 | 3.2 | 4.8 | 0.00 | 0.00 | 0.00 | 83 | 1010.7 |
| 20260509153210 | 25 | 140 | 3.2 | 4.8 | 0.00 | 0.00 | 0.00 | 86 | 1010.8 |
| 20260509151709 | 25 | 140 | 0.0 | 4.8 | 0.00 | 0.00 | 0.00 | 87 | 1010.8 |
| 20260509150907 | 24 | 140 | 3.2 | 8.0 | 0.00 | 0.00 | 0.00 | 88 | 1010.6 |
| 20260509144708 | 24 | 140 | 0.0 | 4.8 | 0.00 | 0.00 | 0.00 | 89 | 1010.5 |
| 20260509143209 | 23 | 140 | 0.0 | 4.8 | 0.00 | 0.00 | 0.00 | 89 | 1010.4 |
| 20260509141709 | 23 | 140 | 1.6 | 3.2 | 0.00 | 0.00 | 0.00 | 90 | 1010.2 |
| 20260509140209 | 23 | 140 | 3.2 | 4.8 | 0.00 | 0.00 | 0.00 | 90 | 1010.0 |
| 20260509134707 | 23 | 140 | 1.6 | 4.8 | 0.00 | 0.00 | 0.00 | 90 | 1010.3 |
| 20260509133210 | 23 | 140 | 0.0 | 3.2 | 0.00 | 0.00 | 0.00 | 91 | 1010.6 |
| 20260509131707 | 23 | 140 | 1.6 | 3.2 | 0.00 | 0.00 | 0.00 | 91 | 1010.6 |
| 20260509130207 | 23 | 140 | 0.0 | 3.2 | 0.00 | 0.00 | 0.00 | 91 | 1010.6 |
| 20260509124704 | 22 | 140 | 1.6 | 3.2 | 0.00 | 0.00 | 0.00 | 91 | 1010.7 |
| 20260509123213 | 22 | 140 | 1.6 | 4.8 | 0.00 | 0.00 | 0.00 | 91 | 1010.7 |
| 20260509122401 | 22 | 140 | 0.0 | 8.0 | 0.00 | 0.00 | 0.00 | 91 | 1010.5 |
| 20260509120206 | 22 | 140 | 3.2 | 4.8 | 0.00 | 0.00 | 0.00 | 91 | 1010.1 |
| 20260509114704 | 22 | 140 | 0.0 | 3.2 | 0.00 | 0.00 | 0.00 | 91 | 1010.0 |
| 20260509113854 | 22 | 140 | 0.0 | 3.2 | 0.00 | 0.00 | 0.00 | 91 | 1009.8 |
| 20260509111704 | 22 | 140 | 0.0 | 4.8 | 0.00 | 0.00 | 0.00 | 91 | 1009.8 |
| 20260509110208 | 22 | 140 | 1.6 | 4.8 | 0.00 | 0.00 | 0.00 | 90 | 1010.2 |
| 20260509104703 | 22 | 140 | 3.2 | 8.0 | 0.00 | 0.00 | 0.00 | 91 | 1010.4 |
| 20260509103208 | 22 | 140 | 3.2 | 4.8 | 0.00 | 0.00 | 0.00 | 90 | 1010.3 |
| 20260509101705 | 22 | 140 | 3.2 | 4.8 | 0.00 | 0.00 | 0.00 | 90 | 1009.9 |
| 20260509100205 | 22 | 140 | 1.6 | 8.0 | 0.00 | 0.00 | 0.00 | 90 | 1009.3 |
| 20260509094703 | 22 | 141 | 0.0 | 3.2 | 0.00 | 0.00 | 0.00 | 90 | 1009.2 |
| 20260509093206 | 22 | 141 | 0.0 | 3.2 | 0.00 | 0.00 | 0.00 | 90 | 1009.6 |
| 20260509091703 | 22 | 141 | 0.0 | 3.2 | 0.00 | 0.00 | 0.00 | 90 | 1009.8 |
| 20260509090918 | 22 | 141 | 0.0 | 0.0 | 0.00 | 0.00 | 0.00 | 90 | 1009.9 |
| 20260509084703 | 22 | 141 | 0.0 | 3.2 | 0.00 | 0.00 | 0.00 | 90 | 1010.0 |
| 20260509083855 | 22 | 141 | 0.0 | 4.8 | 0.00 | 0.00 | 0.00 | 90 | 1010.0 |
| 20260509081704 | 22 | 141 | 0.0 | 3.2 | 0.00 | 0.00 | 0.00 | 90 | 1009.9 |
| 20260509080205 | 22 | 141 | 0.0 | 4.8 | 0.00 | 0.00 | 0.00 | 90 | 1009.8 |
| 20260509074703 | 22 | 141 | 1.6 | 4.8 | 0.00 | 0.00 | 0.00 | 90 | 1009.7 |
| 20260509073912 | 22 | 141 | 1.6 | 4.8 | 0.00 | 0.00 | 0.00 | 90 | 1009.7 |
| 20260509071704 | 22 | 141 | 0.0 | 4.8 | 0.00 | 0.00 | 0.00 | 90 | 1010.0 |
| 20260509070205 | 22 | 141 | 3.2 | 4.8 | 0.00 | 0.00 | 0.00 | 90 | 1010.0 |
| 20260509065403 | 22 | 141 | 0.0 | 3.2 | 0.00 | 0.00 | 0.00 | 90 | 1010.1 |
| 20260509063205 | 22 | 141 | 0.0 | 3.2 | 0.00 | 0.00 | 0.00 | 90 | 1010.1 |
| 20260509061704 | 22 | 141 | 1.6 | 4.8 | 0.00 | 0.00 | 0.00 | 90 | 1010.3 |
| 20260509060205 | 22 | 137 | 0.0 | 3.2 | 0.00 | 0.00 | 0.00 | 90 | 1010.4 |
| 20260509054705 | 22 | 137 | 1.6 | 3.2 | 0.00 | 0.00 | 0.00 | 90 | 1010.5 |
| 20260509053204 | 22 | 137 | 1.6 | 3.2 | 0.00 | 0.00 | 0.00 | 90 | 1010.6 |
| 20260509051704 | 22 | 137 | 0.0 | 4.8 | 0.00 | 0.00 | 0.00 | 90 | 1010.5 |
| 20260509050206 | 22 | 137 | 3.2 | 4.8 | 0.00 | 0.00 | 0.00 | 90 | 1010.4 |
| 20260509044703 | 22 | 137 | 3.2 | 8.0 | 0.00 | 0.00 | 0.00 | 90 | 1010.6 |
| 20260509043205 | 22 | 127 | 1.6 | 8.0 | 0.00 | 0.00 | 0.00 | 90 | 1010.4 |
| 20260509041704 | 22 | 127 | 4.8 | 4.8 | 0.00 | 0.00 | 0.00 | 90 | 1010.4 |
| 20260509040205 | 22 | 127 | 3.2 | 11.3 | 0.00 | 0.00 | 0.00 | 89 | 1010.5 |
| 20260509034704 | 22 | 127 | 1.6 | 8.0 | 0.00 | 0.00 | 0.00 | 89 | 1010.3 |
| 20260509033205 | 22 | 127 | 3.2 | 11.3 | 0.00 | 0.00 | 0.00 | 89 | 1010.3 |
| 20260509031703 | 22 | 127 | 3.2 | 8.0 | 0.00 | 0.00 | 0.00 | 89 | 1010.2 |
| 20260509030205 | 22 | 127 | 4.8 | 11.3 | 0.00 | 0.00 | 0.00 | 89 | 1010.0 |
| 20260509030124 | 22 | 123 | 3.2 | 11.3 | 0.00 | 0.00 | 0.00 | 89 | 1009.9 |
| 20260509023205 | 22 | 130 | 1.6 | 8.0 | 0.00 | 0.00 | 0.00 | 89 | 1009.8 |
| 20260509021703 | 22 | 130 | 4.8 | 20.9 | 0.00 | 0.00 | 0.00 | 89 | 1009.5 |
| 20260509020205 | 22 | 124 | 1.6 | 8.0 | 0.00 | 0.00 | 0.00 | 89 | 1009.8 |
| 20260509014703 | 22 | 124 | 1.6 | 4.8 | 0.00 | 0.00 | 0.00 | 89 | 1009.7 |
| 20260509013206 | 22 | 124 | 3.2 | 4.8 | 0.00 | 0.00 | 0.00 | 88 | 1009.6 |
| 20260509011703 | 22 | 124 | 4.8 | 11.3 | 0.00 | 0.00 | 0.00 | 88 | 1009.3 |
| 20260509010205 | 22 | 124 | 4.8 | 8.0 | 0.00 | 0.00 | 0.00 | 88 | 1009.3 |
| 20260509004704 | 23 | 124 | 3.2 | 11.3 | 0.00 | 0.00 | 0.00 | 87 | 1009.2 |
| 20260509003204 | 23 | 124 | 4.8 | 8.0 | 0.00 | 0.00 | 0.00 | 86 | 1009.4 |
| 20260509001703 | 23 | 124 | 3.2 | 11.3 | 0.00 | 0.00 | 0.00 | 85 | 1009.6 |
| 20260509000204 | 23 | 124 | 6.4 | 11.3 | 0.00 | 0.00 | 0.00 | 84 | 1009.4 |
| 20260508234704 | 23 | 141 | 4.8 | 8.0 | 0.00 | 0.00 | 0.00 | 83 | 1009.5 |
| 20260508233205 | 24 | 113 | 3.2 | 8.0 | 0.00 | 0.00 | 0.00 | 82 | 1009.6 |
| 20260508231704 | 24 | 114 | 3.2 | 11.3 | 0.00 | 0.00 | 0.00 | 81 | 1009.6 |
| 20260508230204 | 24 | 79 | 3.2 | 8.0 | 0.00 | 0.00 | 0.00 | 81 | 1009.4 |
| 20260508224703 | 24 | 114 | 4.8 | 14.5 | 0.00 | 0.00 | 0.00 | 80 | 1009.4 |
| 20260508223205 | 25 | 121 | 3.2 | 8.0 | 0.00 | 0.00 | 0.00 | 80 | 1009.3 |
| 20260508221703 | 25 | 109 | 4.8 | 8.0 | 0.00 | 0.00 | 0.00 | 79 | 1009.5 |
| 20260508220205 | 25 | 106 | 3.2 | 8.0 | 0.00 | 0.00 | 0.00 | 79 | 1009.5 |
| 20260508214703 | 25 | 106 | 3.2 | 8.0 | 0.00 | 0.00 | 0.00 | 79 | 1009.5 |